This is the latest recevied weather packets stored in our database for station/object KY4OP-13. If no packets are shown the sender has not sent any weather packets the latest 10 day(s).
| Time | Temp. | Humidity | Pressure | Rain* | Wind** | Luminosity | Snow |
|---|---|---|---|---|---|---|---|
| 1777747652 | 13.89° C | 45% | 1014.8 hPa | 0 mm | - | - | - |
| 1777747348 | 13.89° C | 47% | 1014.9 hPa | 0 mm | - | - | - |
| 1777747045 | 14.44° C | 45% | 1014.9 hPa | 0 mm | - | - | - |
| 1777746741 | 14.44° C | 42% | 1015.3 hPa | 0 mm | - | - | - |
| 1777746436 | 15° C | 43% | 1015.1 hPa | 0 mm | - | - | - |
| 1777746131 | 14.44° C | 43% | 1015.3 hPa | 0 mm | - | - | - |
| 1777745828 | 15° C | 40% | 1015.4 hPa | 0 mm | - | - | - |
| 1777745523 | 14.44° C | 42% | 1015.2 hPa | 0 mm | - | - | - |
| 1777745219 | 13.89° C | 48% | 1015.2 hPa | 0 mm | - | - | - |
| 1777744916 | 13.33° C | 43% | 1015.5 hPa | 0 mm | - | - | - |
| 1777744615 | 13.33° C | 43% | 1015.7 hPa | 0 mm | - | - | - |
| 1777744311 | 13.89° C | 45% | 1015.5 hPa | 0 mm | - | - | - |
| 1777744009 | 14.44° C | 44% | 1015.5 hPa | 0 mm | - | - | - |
| 1777743704 | 14.44° C | 45% | 1015.6 hPa | 0 mm | - | - | - |
| 1777743402 | 14.44° C | 45% | 1015.6 hPa | 0 mm | - | - | - |
| 1777743100 | 16.11° C | 43% | 1015.6 hPa | 0 mm | - | - | - |
| 1777742797 | 16.11° C | 42% | 1015.7 hPa | 0 mm | - | - | - |
| 1777742494 | 13.89° C | 47% | 1015.7 hPa | 0 mm | - | - | - |
| 1777742189 | 13.33° C | 45% | 1015.9 hPa | 0 mm | - | - | - |
| 1777741886 | 13.89° C | 45% | 1016.1 hPa | 0 mm | - | - | - |
| 1777741584 | 13.89° C | 42% | 1016 hPa | 0 mm | - | - | - |
| 1777741280 | 13.89° C | 45% | 1015.9 hPa | 0 mm | - | - | - |
| 1777740977 | 13.33° C | 46% | 1015.9 hPa | 0 mm | - | - | - |
| 1777740674 | 13.89° C | 47% | 1016.1 hPa | 0 mm | - | - | - |
| 1777740370 | 13.33° C | 47% | 1016.1 hPa | 0 mm | - | - | - |
* Rain latest hour (hover to see other rain measurements)
** Current wind speed in m/s (hover to see current wind gust speed)